Tracking 28052 objects as of 25-Sep-2023
HD Live streaming from Space Station
objects crossing your sky now

STARLINK-2689

Track STARLINK-2689 now!
10-day predictions
STARLINK-2689 is classified as:


NORAD ID: 48463
Int'l Code: 2021-040AM
Perigee: 553.4 km
Apogee: 555.3 km
Inclination: 53.1 °
Period: 95.6 minutes
Semi major axis: 6925 km
RCS: Unknown
Launch date: May 9, 2021
Source: United States (US)
Launch site: AIR FORCE EASTERN TEST RANGE (AFETR)
Your satellite tracking list
Your tracking list is empty




NASA's NSSDC Master Catalog

Two Line Element Set (TLE):
1 48463U 21040AM  23268.11171860  .00000319  00000-0  40276-4 0  9994
2 48463  53.0531 256.5142 0001357  89.7357 270.3788 15.06399821132638
Source of the keplerian elements: AFSPC